TimeEDT,TemperatureF,Dew PointF,Humidity,Sea Level PressureIn,VisibilityMPH,Wind Direction,Wind SpeedMPH,Gust SpeedMPH,PrecipitationIn,Events,Conditions,WindDirDegrees,DateUTC
12:53 AM,63.0,60.1,90,30.01,9.0,SW,3.5,-,N/A,,Clear,220,2012-10-06 04:53:00
1:53 AM,61.0,59.0,93,30.00,8.0,SSW,4.6,-,N/A,,Clear,200,2012-10-06 05:53:00
2:53 AM,60.1,57.9,93,29.99,9.0,SSW,4.6,-,N/A,,Clear,210,2012-10-06 06:53:00
3:53 AM,61.0,57.9,90,29.97,8.0,SW,5.8,-,N/A,,Clear,220,2012-10-06 07:53:00
4:53 AM,60.1,57.9,93,29.96,7.0,SSW,4.6,-,N/A,,Clear,210,2012-10-06 08:53:00
5:53 AM,60.1,59.0,96,29.96,6.0,SSW,4.6,-,N/A,,Clear,210,2012-10-06 09:53:00
6:53 AM,61.0,60.1,97,29.96,4.0,SSW,4.6,-,N/A,,Clear,200,2012-10-06 10:53:00
7:20 AM,60.8,59.0,94,29.98,2.0,SSW,3.5,-,N/A,,Clear,200,2012-10-06 11:20:00
7:53 AM,61.0,61.0,100,29.97,2.0,SW,3.5,-,N/A,,Clear,230,2012-10-06 11:53:00
8:29 AM,64.4,64.4,100,29.99,3.0,SW,3.5,-,N/A,,Clear,230,2012-10-06 12:29:00
8:53 AM,66.9,64.9,93,29.98,5.0,WSW,8.1,-,N/A,,Clear,240,2012-10-06 12:53:00
10:53 AM,77.0,64.0,64,29.96,10.0,WSW,11.5,-,N/A,,Clear,240,2012-10-06 14:53:00
11:53 AM,81.0,63.0,54,29.94,10.0,Variable,6.9,-,N/A,,Clear,0,2012-10-06 15:53:00
12:53 PM,82.9,59.0,44,29.92,10.0,WSW,13.8,18.4,N/A,,Clear,250,2012-10-06 16:53:00
1:53 PM,84.0,59.0,43,29.89,10.0,SW,12.7,-,N/A,,Partly Cloudy,220,2012-10-06 17:53:00
2:53 PM,84.9,57.0,38,29.88,10.0,WNW,6.9,-,N/A,,Clear,290,2012-10-06 18:53:00
3:53 PM,84.9,57.9,40,29.87,10.0,WSW,10.4,-,N/A,,Clear,240,2012-10-06 19:53:00
4:53 PM,84.0,59.0,43,29.86,10.0,WSW,6.9,-,N/A,,Clear,250,2012-10-06 20:53:00
5:53 PM,82.0,59.0,45,29.87,10.0,WSW,8.1,-,N/A,,Partly Cloudy,240,2012-10-06 21:53:00
6:53 PM,78.1,61.0,56,29.89,10.0,SW,3.5,-,N/A,,Clear,230,2012-10-06 22:53:00
7:53 PM,75.0,64.0,69,29.91,10.0,Calm,Calm,-,N/A,,Clear,0,2012-10-06 23:53:00
8:53 PM,71.1,64.0,78,29.92,10.0,SSW,3.5,-,N/A,,Clear,200,2012-10-07 00:53:00
9:53 PM,70.0,64.0,81,29.92,10.0,Calm,Calm,-,N/A,,Clear,0,2012-10-07 01:53:00
10:53 PM,70.0,63.0,78,29.93,10.0,South,5.8,-,N/A,,Clear,190,2012-10-07 02:53:00
11:53 PM,69.1,64.9,87,29.93,9.0,Calm,Calm,-,N/A,,Partly Cloudy,0,2012-10-07 03:53:00